SITRO-AIS 8 (ANOKHIN)

Last updated on Wed Nov 05 2025 00:03:48 GMT+0000 (Coordinated Universal Time)

1 57193U 23091AD 25308.64457683 .00014821 00000+0 59759-3 0 9994 2 57193 97.5403 6.8202 0012778 165.6311 194.5292 15.24851002130140
UTC large
Height (km)
Speed (km/s)
/
Latitude / Longitude
Inclination (degrees)
Orbital Period (minutes)
Azimuth
Elevation
Range (km)
Doppler Factor

Next 0 passes for location: London (51.5072 / 0.1276)

Sorry there are no passes over London.